カタログに戻る

THAICOM 1

運用中通信GEO
NORAD 22931·PAYLOAD·🇹🇭 Thailand

打ち上げ Dec 18, 1993 から Guiana Space Centre

Loading…

TLE

最新Source: Space-Track

元期: Sep 14, 2026, 12:16 UTC

1 22931U 93078B   26257.51143531  .00000031  00000-0  00000-0 0  9993
2 22931  12.0691  34.0551 0006937 201.7866 340.2914  0.99182022 47053

AllMySatでTHAICOM 1をリアルタイム追跡

Download on the App Store